Wind_Speed
14 14 15 14 13 15 16 16 15 14 15 14 12 11 10 9 7 5 6 7 8 11 12 11 13 12 10 10 9 9 10 7 5 8 10 9 8 9 12 14 13 12 12 12 11 9 8 12 16 14 12 13 13 12 11 10 10 11 12 12 10 8 7 7 8 7 7 6 3 3 2 2 1 1
14 14 13 13 14 15 15 17 15 15 16 14 12 11 10 6 4 4 4 6 8 10 10 10 13 13 12 11 9 9 10 8 7 9 9 9 9 7 8 11 12 12 12 13 12 10 10 12 14 14 13 13 13 12 11 10 10 11 11 12 10 7 7 7 7 8 7 5 3 3 2 2 1 1
14 14 13 13 13 13 15 17 17 16 16 13 12 11 10 6 7 8 6 4 7 11 11 11 12 13 13 12 11 10 8 8 9 9 8 9 9 6 6 10 11 10 12 14 13 13 13 11 12 13 13 13 12 11 10 10 10 11 11 11 10 8 8 8 8 8 6 5 4 3 3 2 1 0
15 15 14 16 16 15 17 19 19 18 16 14 13 11 10 10 11 11 8 4 6 12 15 13 12 14 15 12 11 11 9 10 13 11 8 7 6 5 6 9 10 9 13 15 13 13 13 11 11 12 12 12 12 11 9 10 10 11 11 11 10 9 8 9 9 8 7 6 5 4 3 3 2 2
16 15 14 17 18 17 19 21 20 19 17 14 13 11 10 10 11 12 9 6 6 10 14 14 12 15 16 12 12 12 11 13 13 10 9 8 9 9 6 8 10 10 14 16 15 14 13 11 11 11 11 11 11 10 10 10 11 12 12 11 11 10 10 10 10 9 8 6 5 5 5 4 4 4
14 15 15 16 17 17 20 21 19 19 16 14 14 13 11 8 8 11 12 9 8 8 10 13 12 14 14 12 13 13 13 13 12 11 10 10 11 11 8 8 11 12 15 17 17 15 13 12 12 12 12 12 11 11 11 11 12 13 13 12 12 11 11 11 11 10 9 7 7 6 6 6 6 6
16 15 16 16 16 17 18 19 19 19 17 15 14 11 10 11 9 11 13 12 11 10 11 12 13 13 12 12 13 13 13 13 11 11 12 10 10 10 10 10 10 12 16 17 16 16 14 14 13 13 13 12 12 12 12 13 13 13 13 13 13 13 13 12 12 11 10 9 8 8 8 8 8 8
18 16 16 16 17 18 18 20 20 17 16 14 11 7 8 11 11 11 12 13 13 13 13 12 13 13 11 11 13 13 12 12 11 11 10 9 10 10 11 11 10 9 12 13 14 14 14 14 14 14 14 14 14 14 14 13 14 14 14 14 14 14 14 14 13 13 12 11 10 10 10 10 10 10
18 17 17 17 17 17 17 18 17 14 14 11 7 7 8 10 11 11 11 13 12 13 13 12 12 13 11 11 12 12 12 11 11 11 10 9 11 10 9 12 11 8 9 11 12 12 12 13 13 14 15 16 15 15 15 15 15 15 15 15 15 15 15 15 15 14 13 13 12 12 12 11 12 12
18 17 18 17 17 16 14 14 13 11 11 8 6 9 10 12 15 14 12 13 12 11 12 11 11 12 12 11 11 11 12 11 10 11 10 9 10 11 9 11 12 10 9 11 11 11 12 12 13 14 15 16 17 17 17 16 16 17 17 17 17 17 17 16 16 16 15 15 14 14 14 13 13 13
18 18 17 15 13 13 12 11 11 9 8 7 7 9 12 14 17 15 12 14 14 11 11 11 11 11 11 10 10 10 10 10 10 10 11 10 11 12 11 11 12 11 11 11 11 10 11 11 11 12 13 15 16 17 18 18 18 18 18 18 18 18 18 18 18 17 17 17 16 16 16 16 15 15
18 17 14 10 10 11 10 9 9 8 7 6 6 9 12 15 17 15 12 12 14 14 12 11 9 10 11 10 9 10 10 9 9 9 10 11 11 12 12 11 12 12 11 12 12 11 10 11 12 12 13 14 15 17 18 18 19 19 19 19 19 20 20 20 20 20 19 19 19 19 18 18 18 17
12 10 9 7 7 10 9 8 9 9 7 7 8 9 11 15 18 18 15 13 11 12 10 8 3 3 8 9 9 10 11 10 10 10 10 10 10 11 12 12 12 13 13 12 13 14 13 12 12 12 13 13 13 14 15 16 18 19 19 20 21 21 22 22 22 22 22 22 21 21 21 20 20 19
6 6 6 6 7 7 7 8 10 9 6 6 8 10 14 16 17 16 15 13 11 9 6 9 7 4 6 8 9 9 10 11 11 12 12 11 11 11 12 12 11 11 11 10 11 13 13 11 11 12 11 11 10 10 13 15 15 15 15 16 18 19 20 21 22 23 23 23 23 23 23 22 21 21
5 5 4 5 5 5 6 8 8 8 7 6 7 9 12 13 12 12 10 7 8 10 7 8 11 9 8 8 9 9 9 10 9 10 11 11 11 12 11 10 9 9 8 7 8 10 10 11 9 4 3 9 11 9 8 10 10 10 10 11 13 14 16 17 19 20 22 23 23 24 24 23 22 21
5 5 6 6 6 5 6 8 8 9 9 8 8 9 9 9 7 7 6 1 2 9 9 7 9 8 6 8 7 6 8 9 8 9 9 9 9 10 7 5 5 7 8 7 7 5 4 6 4 5 9 11 11 6 3 4 6 8 10 11 12 13 14 14 15 16 17 18 19 20 20 20 20 20
4 6 6 7 8 8 8 8 8 10 10 8 8 9 8 8 8 8 8 6 5 7 6 7 6 2 3 7 6 4 4 5 4 4 4 3 4 4 3 7 6 6 5 4 4 1 3 3 2 5 6 5 4 1 3 4 5 6 7 8 9 9 9 9 9 11 11 13 13 14 15 15 16 16
2 5 6 8 11 12 11 11 11 12 12 11 10 10 9 7 7 6 6 5 6 6 6 7 7 5 6 6 4 3 3 2 1 2 3 2 2 4 5 9 9 6 3 2 1 2 4 3 4 7 6 3 2 2 3 3 3 3 3 4 4 4 4 4 5 6 7 7 8 8 9 10 10 11
5 4 5 8 11 12 12 12 12 11 10 10 10 10 9 8 8 7 7 5 5 5 6 7 8 7 7 6 4 4 4 4 2 3 4 2 4 5 6 9 10 6 3 3 2 3 4 4 6 8 6 3 3 4 5 4 4 4 4 4 4 4 4 3 3 3 3 3 4 4 5 6 6 6
8 7 7 8 10 11 11 11 10 9 9 9 9 9 10 10 9 9 9 8 7 6 6 6 6 6 6 5 4 5 5 4 4 4 2 1 2 4 6 8 10 8 4 5 6 5 4 4 5 7 5 3 5 6 6 6 5 6 7 6 6 6 5 5 4 3 3 3 4 4 3 2 1 1
13 13 11 10 11 11 10 9 8 7 8 8 7 8 9 10 11 10 9 8 7 6 6 6 5 5 4 4 3 3 3 3 2 1 1 1 2 3 4 6 9 9 6 5 6 5 4 4 3 5 6 5 7 7 6 8 9 10 11 11 9 9 8 7 6 6 4 3 4 4 3 2 3 3
16 16 13 12 13 11 7 7 7 7 7 5 4 6 8 9 9 8 7 7 8 7 6 6 6 4 3 3 3 2 2 2 3 5 4 2 3 6 7 7 8 8 7 5 6 4 4 4 1 2 5 5 6 8 6 7 8 9 9 10 10 11 12 12 11 10 7 4 3 4 3 4 4 4
16 17 16 15 14 11 6 5 6 8 8 6 4 3 6 7 7 5 5 7 8 8 8 7 7 6 6 6 5 6 6 5 6 8 8 6 4 5 8 8 8 6 4 4 4 3 3 4 1 1 4 4 5 8 7 6 6 5 5 7 9 10 11 13 13 13 11 8 5 4 4 4 5 5
15 15 15 15 13 10 7 6 4 5 7 8 7 6 7 8 6 4 4 5 6 7 7 7 7 7 7 8 8 9 9 9 8 8 9 9 7 4 3 6 8 7 5 3 3 2 0 3 1 2 2 2 5 9 8 6 6 4 3 5 7 7 8 11 11 12 13 11 9 9 8 5 4 5
12 12 12 12 11 8 7 5 4 4 5 6 8 10 12 11 7 6 6 6 7 7 7 6 6 6 6 7 8 9 10 11 11 9 9 10 9 10 9 3 7 11 8 4 3 4 3 1 1 1 3 4 4 9 9 5 4 5 5 5 5 5 6 7 8 9 11 11 10 10 10 7 1 5
13 12 12 12 11 10 8 7 7 7 6 7 10 13 14 12 10 9 8 7 6 6 6 6 5 5 5 6 7 9 9 10 11 10 10 10 9 10 13 12 10 12 9 5 5 5 5 5 6 4 4 5 5 5 8 8 5 5 8 7 6 5 5 5 4 6 8 8 7 8 9 6 3 3
14 13 14 14 13 12 11 12 11 11 12 13 15 15 14 13 11 10 8 7 7 7 7 6 6 5 5 5 7 8 9 9 10 10 11 11 11 10 12 14 14 13 10 8 7 6 5 5 5 3 5 4 6 6 3 8 8 6 5 5 6 5 4 5 4 4 5 5 6 8 8 6 4 4
14 14 15 14 13 12 13 14 13 14 15 17 16 15 14 13 12 10 10 10 10 9 7 7 7 6 6 7 8 9 9 8 8 9 9 10 12 12 12 13 13 12 11 9 8 7 5 4 4 3 5 6 6 6 3 0 5 8 5 4 5 6 5 6 6 6 6 6 6 6 7 6 6 6
14 14 13 13 13 12 12 13 14 15 17 16 15 15 14 13 12 11 10 9 8 7 6 5 6 6 7 8 8 7 6 5 5 6 7 7 9 10 12 13 12 12 12 10 8 7 5 5 5 3 3 4 6 4 3 4 4 9 8 5 6 7 6 6 6 7 7 7 7 7 8 7 5 5
14 13 12 11 11 11 11 13 14 15 15 13 13 12 10 10 9 8 8 8 6 5 5 5 5 6 6 6 6 5 4 3 3 4 4 5 6 7 8 10 11 11 11 9 8 7 6 6 4 3 1 2 5 7 5 4 5 7 7 5 5 6 6 6 7 7 7 7 8 9 9 9 7 8
12 11 10 10 10 9 10 12 13 12 12 11 11 10 9 8 8 7 7 8 7 5 5 5 6 6 6 5 5 4 4 4 5 3 2 4 4 4 4 6 8 9 8 7 7 7 7 6 5 4 4 4 4 5 4 3 4 5 5 4 4 5 4 6 7 7 7 8 9 9 9 9 9 9
10 10 9 8 8 7 8 9 10 9 10 10 10 10 10 9 9 8 7 7 7 6 5 5 5 5 5 5 5 5 5 5 4 3 3 3 4 3 2 4 5 6 6 5 6 7 6 5 6 6 5 5 4 3 2 2 2 2 3 3 3 4 4 5 6 7 8 9 10 10 9 10 10 10
7 8 7 6 5 5 6 7 7 7 8 8 9 9 9 9 8 8 7 7 6 6 5 4 4 4 5 5 5 5 5 5 4 4 3 2 2 3 3 3 3 3 4 5 5 4 4 4 4 6 7 7 5 4 3 2 2 2 3 4 5 5 5 6 7 8 9 10 10 10 10 10 10 10
7 6 6 5 6 5 5 6 6 6 6 7 7 7 7 8 8 8 7 7 6 5 4 3 3 3 4 4 4 5 5 4 5 5 4 3 3 3 3 4 3 2 3 3 2 2 5 7 6 6 8 7 5 4 5 4 4 5 6 7 8 8 8 8 9 11 11 11 11 12 11 11 11 11
8 7 6 6 6 6 5 5 5 5 6 6 6 6 7 7 7 7 6 6 5 5 4 3 2 2 2 2 4 5 4 4 5 4 3 3 2 2 3 4 4 4 3 3 2 1 3 9 10 8 9 9 7 8 9 8 7 5 6 8 9 10 10 10 11 11 12 12 11 12 12 11 11 12
8 7 7 7 7 6 5 4 4 4 4 3 3 5 5 4 5 4 4 3 2 3 3 2 3 3 2 3 4 3 2 3 4 4 3 4 6 5 5 5 4 4 4 2 2 2 1 5 7 6 7 8 8 7 7 8 8 7 6 7 8 9 10 11 10 10 10 10 10 10 10 10 11 11
6 5 4 4 5 5 4 3 3 3 3 2 3 3 3 2 3 2 1 2 2 3 3 2 2 3 3 3 3 3 3 4 4 4 5 5 5 6 7 6 4 4 3 2 2 2 2 2 1 2 3 2 2 4 6 8 9 8 7 6 8 9 9 10 10 10 10 10 10 11 11 11 12 11
7 6 5 5 6 5 3 3 3 3 2 3 3 3 3 2 1 0 1 2 2 2 3 2 2 4 4 4 4 4 4 4 3 3 5 7 6 5 6 5 4 4 3 2 2 2 2 4 5 5 5 4 3 3 2 5 9 10 9 9 10 10 10 10 10 10 11 11 11 12 12 12 13 12
9 10 10 9 9 9 7 6 6 5 4 3 2 2 2 1 1 0 0 1 2 3 3 3 3 4 4 4 4 4 4 5 5 4 5 6 5 5 5 5 3 4 6 7 5 4 6 7 6 6 6 5 4 4 5 2 7 9 9 11 13 12 10 9 10 10 10 11 12 12 12 12 12 11
10 9 10 10 9 9 9 8 7 6 5 4 4 4 2 1 1 1 1 1 2 2 3 4 4 3 3 3 3 4 4 4 4 4 4 4 5 5 4 4 4 4 4 5 7 8 9 8 6 5 4 3 1 1 3 2 4 8 7 9 13 14 11 8 9 10 9 10 11 12 12 12 11 10
10 9 9 9 8 8 7 6 6 5 5 4 5 5 4 3 3 3 3 2 2 3 4 4 3 3 4 3 3 5 5 5 5 5 4 4 5 6 5 3 3 3 3 3 4 6 6 5 4 4 4 1 4 6 5 2 1 2 4 5 9 14 12 8 8 9 8 8 10 11 11 12 12 10
10 9 9 8 8 7 7 6 6 5 5 4 4 3 3 3 2 1 3 3 2 3 4 4 4 4 4 4 4 4 5 6 6 6 5 5 5 5 3 3 4 4 3 4 4 4 4 3 1 2 2 2 4 4 4 4 4 6 6 5 8 11 9 6 8 9 6 5 7 8 8 10 11 11
10 9 9 9 8 8 7 6 6 5 5 5 4 3 2 2 2 3 4 3 3 4 4 4 4 4 4 4 5 4 4 5 6 5 5 5 5 5 5 5 5 3 2 4 4 3 2 3 2 1 2 3 4 6 7 4 4 5 6 6 8 10 6 3 7 8 5 4 5 4 4 6 8 8
10 9 9 8 8 8 7 7 6 5 4 4 3 2 2 2 2 2 2 2 2 2 2 2 3 3 3 3 4 4 5 5 5 5 5 5 5 5 5 5 4 4 3 3 3 3 2 3 3 4 5 5 4 5 5 4 4 4 5 6 7 9 7 5 6 7 5 4 4 2 2 4 6 7
10 10 9 8 7 7 7 6 6 5 4 3 3 2 2 2 2 2 2 2 2 2 2 2 3 2 2 2 4 5 5 5 5 5 5 5 5 4 4 4 4 5 4 3 3 3 2 3 4 5 5 3 3 4 4 2 3 2 5 6 7 7 8 8 8 8 7 6 5 2 2 4 5 7
Wind_Direction
198 205 211 213 219 218 218 224 230 243 247 239 230 213 201 200 192 188 190 177 177 188 186 175 175 178 171 167 166 162 174 188 171 171 185 196 203 202 206 206 206 209 202 194 195 192 190 185 183 190 189 182 186 191 198 203 192 185 182 184 192 192 185 181 175 171 172 176 182 171 171 167 140 95
196 203 207 214 219 214 218 223 224 238 247 237 224 218 221 219 178 167 195 179 164 172 184 182 175 172 168 167 162 158 181 196 170 168 178 183 193 196 196 200 203 205 195 187 188 179 168 170 178 188 185 181 190 197 202 204 194 191 190 191 195 193 192 190 185 189 191 193 197 191 198 193 168 96
194 196 197 208 214 207 214 223 224 231 237 234 228 221 214 193 155 169 198 193 160 164 180 190 179 169 164 165 163 156 178 191 164 158 166 177 194 197 185 191 195 195 187 181 180 174 170 173 177 180 181 185 194 199 205 205 197 196 197 197 198 197 197 194 195 203 204 206 210 208 217 218 215 271
196 192 193 204 210 211 217 221 222 224 225 227 229 222 206 181 159 164 179 184 164 161 172 184 179 167 161 163 167 155 155 164 150 148 176 195 192 174 173 182 179 179 180 176 172 170 172 175 175 180 187 193 199 203 208 206 202 204 205 202 202 203 203 200 205 212 211 213 220 221 226 236 246 255
199 194 194 202 208 214 218 215 214 218 223 226 224 217 208 191 163 159 166 167 157 152 164 177 173 162 160 162 167 154 145 155 151 150 177 180 156 153 164 179 183 181 175 171 168 167 173 177 180 187 193 197 202 207 210 207 205 209 209 206 206 208 210 210 213 218 220 221 228 232 238 247 255 258
203 200 200 204 207 211 214 209 207 214 221 222 219 210 204 198 163 156 167 162 150 152 165 175 171 164 165 163 160 154 149 159 162 156 161 163 160 161 161 175 190 184 172 172 171 170 176 181 185 191 196 200 203 206 209 208 207 211 211 210 210 211 215 216 219 224 226 228 233 241 248 255 262 268
202 201 205 206 204 206 209 207 208 214 217 215 216 207 190 190 171 157 168 163 155 164 169 171 171 167 169 163 155 155 155 162 167 160 160 168 171 166 159 169 188 179 169 171 172 174 180 184 189 195 198 204 205 206 210 209 209 214 216 214 215 217 220 221 223 226 230 233 237 245 253 260 267 273
200 201 206 205 203 204 207 209 209 212 213 208 203 184 171 181 172 156 166 168 165 168 168 171 170 163 166 165 157 156 157 164 171 164 164 170 165 162 164 172 184 178 172 175 176 180 187 189 194 199 200 205 208 209 211 212 213 218 220 220 220 221 223 225 227 230 234 239 243 249 255 261 267 272
205 205 207 206 203 203 205 208 205 203 208 204 176 152 154 172 170 153 161 180 180 168 164 167 161 157 164 164 158 159 158 165 174 166 166 172 165 167 174 172 175 176 175 182 187 189 194 198 202 205 207 209 211 213 214 215 217 220 224 226 225 226 229 230 232 235 239 245 249 253 258 262 267 271
207 205 207 206 202 199 202 206 202 200 202 191 158 153 162 182 185 166 163 190 193 170 163 165 159 162 169 163 162 168 163 165 175 167 165 176 170 169 173 168 173 188 195 195 198 198 200 206 209 211 216 216 216 219 219 219 222 224 228 231 231 233 234 235 239 241 244 249 254 258 262 266 269 272
204 203 204 204 199 196 201 202 195 189 185 173 167 166 167 182 187 174 173 187 180 164 164 171 170 170 171 166 169 175 168 168 176 169 168 178 176 174 179 172 171 189 205 206 207 208 209 214 217 218 222 224 225 226 226 228 229 230 233 237 239 241 243 244 247 248 252 255 258 262 265 269 272 273
201 199 195 195 192 186 187 189 181 175 163 161 178 177 171 178 177 174 191 194 175 168 172 176 179 172 169 176 181 178 175 180 186 180 177 182 179 177 186 188 179 180 191 200 206 211 214 218 223 226 227 229 231 233 235 237 238 239 241 242 245 248 250 252 254 255 258 260 263 266 268 271 273 274
194 177 163 166 170 172 176 176 176 177 157 150 173 176 171 179 177 176 192 200 182 174 165 141 127 195 179 179 191 185 180 189 195 188 186 190 189 184 188 197 194 185 186 194 203 211 216 218 223 229 235 238 236 235 241 244 246 249 250 251 254 256 257 260 261 263 264 265 267 269 269 271 271 271
175 148 157 167 157 157 165 165 173 181 164 149 170 170 166 181 194 194 193 193 181 172 149 121 134 227 223 186 199 203 190 198 200 190 192 197 196 196 195 198 199 198 201 205 211 214 208 202 210 225 238 237 224 223 235 242 248 254 256 258 260 260 261 263 264 266 267 267 268 268 267 267 266 266
161 148 167 168 150 152 163 165 169 175 170 156 157 162 160 171 200 210 200 199 178 160 146 133 158 206 231 199 204 212 204 210 204 192 199 200 197 205 205 195 184 183 197 221 235 225 200 190 205 220 172 167 169 184 216 228 238 248 251 254 259 262 263 264 264 265 266 265 265 266 265 264 263 262
159 155 157 141 138 159 170 175 182 182 185 184 170 171 164 146 153 165 155 153 156 149 151 159 173 201 208 186 196 211 216 222 211 205 215 211 211 217 200 172 170 177 192 223 243 235 174 177 191 63 85 131 147 152 212 230 241 253 258 261 266 269 269 268 269 268 268 269 269 269 269 267 263 260
175 166 157 129 126 140 139 144 159 157 156 160 157 157 150 131 124 127 124 110 92 103 128 160 170 173 137 159 178 186 192 202 196 216 239 233 270 297 102 119 135 154 179 230 250 203 124 154 140 87 95 131 135 93 308 292 277 271 272 272 270 272 273 273 277 278 276 277 277 275 274 272 268 263
140 152 157 144 131 125 118 120 130 131 128 127 121 111 109 119 125 122 122 125 110 81 70 105 122 91 89 116 132 124 111 73 88 242 258 232 289 345 79 124 134 135 163 230 264 141 155 160 112 112 127 127 82 36 352 343 331 319 305 298 292 284 282 285 285 288 289 287 287 288 287 282 276 267
90 118 144 145 129 120 120 124 128 129 124 121 114 102 100 110 115 109 102 100 107 103 89 99 116 120 117 119 121 122 104 63 92 202 226 183 165 161 145 142 136 131 170 187 113 89 128 138 121 128 137 115 84 62 35 22 6 4 358 343 340 328 317 314 299 298 309 312 317 316 305 295 282 266
89 102 107 105 105 116 123 119 120 125 123 118 114 106 100 99 96 92 92 92 94 103 108 110 119 131 138 141 146 154 147 113 115 168 185 123 155 167 151 131 114 98 102 131 110 91 117 141 140 145 153 141 122 94 52 39 36 28 20 12 8 1 356 353 345 344 351 356 355 345 331 337 349 201
73 82 92 93 98 111 110 98 100 111 116 119 117 110 101 91 82 76 78 87 92 91 94 101 110 124 134 134 139 161 170 147 121 126 121 29 21 65 93 108 101 82 70 107 111 99 128 151 151 158 170 168 145 120 71 48 50 42 31 27 28 27 21 18 16 8 1 17 20 7 13 64 93 106
67 71 78 89 100 103 85 76 79 73 82 106 115 115 109 87 75 71 68 76 81 75 74 79 82 90 97 95 97 89 76 85 80 69 67 68 80 93 102 117 115 89 66 90 110 104 130 149 145 161 174 170 138 120 94 60 48 37 25 20 22 30 30 25 22 19 14 18 24 25 52 90 101 96
71 71 73 78 91 95 82 79 72 53 55 57 37 69 100 85 72 69 65 70 70 61 60 65 63 64 72 75 76 71 62 62 69 71 71 64 66 97 112 126 130 103 62 89 108 88 126 144 139 176 174 163 130 125 119 97 76 52 36 28 19 18 22 20 17 14 10 5 5 22 49 83 106 107
71 66 65 67 72 78 77 75 60 43 51 51 38 46 75 83 78 74 78 83 77 69 68 70 72 73 73 72 69 65 60 57 57 67 73 61 45 56 108 156 153 118 87 115 111 42 261 188 206 225 211 201 156 153 153 137 113 102 81 48 26 9 7 11 11 7 5 5 13 23 22 27 107 150
74 63 61 64 63 64 70 73 69 59 56 55 57 65 79 89 88 78 81 82 76 77 78 75 75 74 71 73 72 67 64 59 53 57 65 61 53 46 31 30 131 108 88 107 104 39 338 293 43 349 284 276 216 174 161 148 113 109 115 88 52 39 27 15 7 2 2 4 13 17 8 358 12 190
82 74 69 68 64 63 70 75 76 75 74 78 79 81 88 95 89 76 75 74 69 71 71 66 67 71 74 79 77 71 70 66 58 54 55 54 60 61 49 51 86 95 79 70 72 40 5 27 43 13 320 300 276 221 161 142 122 118 128 113 74 55 46 28 11 2 359 355 350 347 345 344 340 251
86 82 77 74 71 72 76 78 82 88 93 93 91 90 91 88 78 68 61 61 66 68 63 59 61 68 80 86 82 76 74 70 64 62 61 59 61 68 68 68 75 81 73 62 59 46 22 46 62 15 335 326 301 285 199 141 116 101 112 96 69 58 36 10 358 352 350 336 315 319 330 335 327 312
85 84 82 80 78 78 80 83 88 91 91 89 88 90 89 81 71 62 54 54 59 59 59 61 57 53 59 70 76 78 78 80 79 75 72 69 66 66 71 73 73 73 69 60 57 55 31 31 66 53 3 338 316 309 301 100 83 74 54 19 35 42 17 351 343 346 348 337 315 311 321 318 305 306
78 78 80 82 82 81 82 85 87 86 86 88 88 88 84 74 66 60 55 54 55 54 58 68 67 61 63 69 75 82 90 102 104 92 83 80 78 76 73 71 67 62 58 52 51 55 48 34 34 45 36 345 333 349 337 312 16 64 58 14 356 360 357 350 344 346 349 343 331 321 319 319 315 309
70 72 74 76 81 86 87 87 87 87 87 87 84 78 71 65 65 67 66 64 63 63 66 73 79 80 79 79 82 86 96 98 88 89 100 101 101 103 96 86 76 66 58 52 45 43 52 53 29 352 40 46 15 19 18 338 360 47 53 24 348 338 347 350 340 339 346 343 333 324 318 318 317 308
60 62 66 71 80 92 95 93 91 90 88 84 79 74 72 69 69 76 82 78 74 73 76 80 86 88 89 94 95 88 89 90 79 74 97 106 106 116 115 102 93 81 71 67 63 50 42 50 56 29 22 49 58 42 30 19 13 16 20 14 347 325 334 341 332 334 342 336 326 321 319 317 313 309
64 65 68 73 82 88 88 87 91 96 99 99 97 92 87 80 73 72 80 83 76 69 73 87 97 103 105 104 102 97 97 99 98 90 90 102 115 131 132 117 112 108 104 96 88 78 58 56 78 78 56 60 78 71 55 72 64 14 346 342 327 313 318 325 324 329 335 329 322 323 324 322 323 323
64 68 71 74 75 74 75 80 90 100 105 105 103 98 89 82 77 75 75 74 67 62 69 80 86 101 110 110 115 119 106 90 95 110 113 118 144 164 155 138 136 134 122 112 109 116 123 112 101 108 113 106 88 60 38 45 52 21 351 331 318 317 326 331 330 329 328 322 317 317 318 317 320 322
52 53 61 66 60 57 64 71 77 87 95 94 92 93 88 82 80 78 72 66 62 64 71 81 93 118 142 153 146 131 111 95 104 122 130 129 145 166 150 131 133 117 88 95 107 149 169 165 150 129 127 124 106 83 66 43 25 12 1 352 347 347 350 350 343 335 331 327 324 328 331 329 325 324
50 46 48 51 48 48 55 63 69 75 80 82 79 76 76 74 71 71 71 71 74 76 74 86 120 133 153 147 121 112 126 137 129 127 141 145 154 169 150 134 130 120 106 111 96 47 166 175 176 172 159 145 123 99 81 63 50 35 14 8 6 358 352 351 347 340 338 338 340 343 344 337 328 325
51 49 51 51 47 46 47 51 60 63 59 64 71 69 66 59 48 53 72 84 92 107 114 134 150 133 103 100 106 106 133 133 108 91 83 39 22 46 106 116 103 106 113 118 91 46 82 164 177 189 183 166 148 122 97 76 67 62 45 28 18 4 352 349 345 339 338 338 336 336 335 329 323 320
62 58 61 57 48 44 44 44 47 46 32 16 20 30 32 24 19 30 55 29 23 66 88 91 131 128 107 99 104 87 70 80 88 94 105 84 47 62 100 110 111 125 129 114 97 63 30 50 65 355 319 252 184 131 120 113 96 78 61 47 33 14 358 350 344 340 340 336 333 335 335 330 324 321
37 30 24 30 30 24 24 36 30 10 358 2 6 3 356 357 8 26 52 37 54 101 110 102 120 131 127 129 130 116 101 105 105 99 117 134 135 122 120 130 144 142 116 83 119 126 61 37 34 21 3 351 0 28 82 120 108 88 67 57 48 27 7 355 347 342 338 335 336 338 335 328 323 324
22 18 17 23 26 19 15 18 13 0 354 354 350 340 331 331 330 222 131 94 119 143 148 136 132 141 152 151 138 129 133 140 138 132 132 136 135 136 145 150 126 61 29 8 7 57 77 62 40 18 7 13 33 24 0 31 115 114 83 51 41 32 19 2 349 340 336 337 339 335 329 327 328 334
25 24 23 22 22 20 18 13 6 0 358 354 350 351 359 51 54 54 80 127 143 139 133 133 138 146 154 142 115 109 121 128 124 114 101 75 51 52 74 84 64 55 43 12 9 33 59 62 48 30 25 30 47 331 323 313 157 142 107 59 40 31 25 15 357 347 342 342 338 332 332 338 337 339
27 29 29 24 21 22 19 12 8 8 9 6 0 0 11 28 30 37 60 98 139 142 129 128 134 133 130 130 131 134 137 133 119 104 88 68 58 57 57 56 64 78 84 64 38 37 51 62 55 46 49 24 269 269 278 267 174 67 55 59 38 20 14 20 16 359 346 345 343 338 341 345 339 337
26 26 25 20 18 20 18 17 20 21 18 20 20 16 20 25 34 97 113 113 132 140 132 134 143 146 143 139 133 132 134 131 129 131 131 122 116 107 77 54 66 71 70 80 76 55 48 57 15 338 6 322 304 333 14 36 23 3 360 17 15 357 347 2 12 358 343 346 347 344 349 349 341 340
22 23 21 17 15 16 16 18 20 23 26 27 31 40 52 68 111 142 142 142 150 146 141 149 154 146 138 129 116 112 118 121 123 128 128 118 109 100 78 60 58 54 58 86 95 89 73 62 26 1 54 38 17 27 34 21 352 352 2 7 352 334 319 337 347 336 333 352 345 339 358 357 347 344
12 14 16 17 14 12 15 17 15 20 27 25 20 25 47 69 91 113 124 138 145 135 123 132 135 124 118 129 131 122 113 112 117 117 109 98 93 94 92 81 65 49 44 69 90 98 98 75 49 52 64 54 43 48 40 7 344 3 13 4 340 331 339 350 316 285 273 306 320 313 352 355 350 349
7 6 9 15 16 13 14 14 14 18 22 23 27 34 42 57 69 68 58 59 73 92 109 124 123 87 48 84 119 120 112 114 124 127 121 116 115 109 103 98 86 68 50 49 62 68 82 83 69 66 62 43 46 68 53 337 288 321 9 4 344 336 347 347 321 287 262 260 265 280 352 345 339 341
Height
801 801 803 805 807 809 811 812 813 814 815 816 816 815 814 815 817 819 821 823 825 825 826 828 830 832 833 834 835 835 836 837 838 839 840 841 842 843 844 845 847 848 850 851 852 853 854 855 857 859 860 861 862 863 865 865 866 867 868 869 870 870 871 872 872 873 873 873 873 873 874 874 874 874
799 800 802 804 806 808 809 809 811 812 814 815 815 815 814 814 814 816 818 821 822 824 825 827 828 830 831 833 834 835 835 836 837 839 840 840 841 842 843 844 845 847 849 850 851 852 853 855 857 858 859 861 862 863 864 865 866 866 867 868 869 870 870 871 872 872 872 873 873 873 873 873 873 873
798 800 802 804 805 807 808 808 810 812 813 814 814 814 814 814 815 815 817 819 821 823 825 826 827 828 829 831 832 834 834 835 836 838 839 839 840 841 842 843 844 846 847 849 850 852 853 855 856 858 859 860 861 863 864 865 865 866 867 868 869 869 870 871 871 871 872 872 872 872 872 873 873 873
798 800 802 803 804 806 808 809 810 811 812 812 813 814 814 814 815 815 816 818 820 823 825 825 826 826 828 830 831 833 834 834 836 837 838 838 839 840 841 842 844 845 846 848 849 851 853 855 856 858 859 860 861 862 863 864 865 866 867 868 869 869 870 870 870 871 871 871 871 872 872 872 872 873
798 800 801 802 804 805 807 809 809 810 811 811 811 812 812 812 813 814 815 818 819 822 824 824 825 826 827 829 831 832 833 834 835 836 837 837 838 840 842 842 844 845 846 847 849 850 852 854 856 857 858 859 860 862 863 864 865 866 866 867 868 868 869 870 870 870 870 871 871 871 871 872 872 872
798 799 800 801 803 805 806 806 807 808 809 809 810 810 811 811 812 813 815 817 819 821 823 824 824 825 826 828 830 831 832 834 835 836 836 837 838 840 842 843 843 844 845 847 848 850 851 853 855 856 857 858 860 861 862 863 863 864 865 866 867 867 868 869 869 870 870 870 870 870 871 871 871 871
797 798 799 800 801 803 804 804 805 807 808 808 808 809 809 810 812 815 815 816 819 820 822 823 823 824 826 827 829 830 832 833 834 835 836 837 837 839 841 843 843 844 845 847 848 849 851 852 854 855 856 857 858 859 860 861 862 863 864 865 866 866 867 868 868 868 869 869 869 870 870 870 870 870
796 797 797 799 800 801 803 804 805 805 806 807 807 808 809 810 813 815 815 815 818 819 820 822 822 823 825 826 827 829 831 832 833 834 835 836 837 838 841 842 842 844 845 846 847 849 850 851 852 854 855 856 857 858 859 860 861 862 863 864 864 865 866 866 867 867 867 868 868 869 869 869 869 869
796 796 796 798 799 800 802 803 804 804 805 806 807 808 810 811 812 814 814 815 817 818 819 820 821 823 824 825 826 827 829 830 831 832 834 835 836 838 839 840 841 843 845 846 847 848 849 850 851 852 853 855 856 857 858 859 860 860 861 862 863 864 864 865 865 866 866 866 867 867 867 868 868 868
796 796 796 797 798 798 800 801 802 803 804 806 807 808 809 811 811 812 815 818 818 817 819 820 821 822 823 824 825 826 827 828 829 830 833 834 835 837 838 839 840 842 844 845 846 847 848 849 850 851 852 853 854 855 856 857 858 858 859 860 861 862 862 863 864 864 865 865 866 866 866 866 867 867
795 795 795 795 797 798 799 800 801 802 803 804 806 808 809 810 810 810 815 819 818 817 818 819 820 822 822 823 824 825 826 827 828 829 831 833 834 836 837 838 839 841 842 843 844 845 846 847 848 849 850 851 852 853 854 855 856 857 858 858 859 860 861 862 862 863 863 864 864 864 864 865 865 866
792 793 793 794 796 797 798 799 800 801 803 804 805 807 809 811 811 810 814 817 816 816 818 820 820 821 822 823 824 825 825 826 827 827 829 831 832 834 836 837 838 839 840 842 843 843 844 845 846 847 848 849 850 851 852 853 854 855 856 857 858 859 860 860 861 861 862 862 862 863 863 863 864 864
790 792 793 794 795 796 796 798 799 800 802 804 806 807 809 811 811 811 813 814 814 815 817 820 821 823 823 822 823 824 824 825 826 827 828 830 831 833 834 835 836 837 839 840 841 841 842 843 844 845 846 847 847 849 850 851 852 853 855 856 857 858 858 859 859 860 860 860 860 860 861 861 861 862
789 791 793 794 794 796 796 798 799 800 802 804 805 808 810 811 812 812 812 812 813 814 815 818 820 821 822 822 822 822 823 824 825 826 827 828 830 831 833 834 835 836 837 838 838 839 840 842 843 844 844 844 846 848 848 849 850 851 853 854 855 855 856 856 857 857 857 858 858 858 858 858 859 860
791 792 794 794 795 796 797 798 800 801 802 804 805 807 809 811 813 813 811 811 812 812 814 816 817 819 821 822 822 823 822 823 824 824 825 827 828 829 830 832 834 835 836 837 837 838 839 841 843 844 844 843 845 847 847 848 849 850 851 852 852 853 853 854 854 854 854 855 855 855 855 855 856 857
792 793 795 795 796 797 797 799 800 801 803 804 805 807 808 809 811 811 810 809 810 811 813 815 817 819 820 821 822 822 823 823 824 824 825 826 827 829 829 831 833 834 835 837 838 839 841 841 842 844 845 845 845 847 848 848 848 849 849 850 850 851 851 851 852 852 852 852 852 853 853 853 854 854
793 794 795 796 797 798 798 800 801 802 803 804 806 807 808 809 809 809 809 809 810 811 813 815 817 819 820 821 822 822 822 823 823 824 825 826 827 830 832 833 834 834 836 837 838 840 842 841 841 843 846 845 845 846 847 848 848 848 849 849 849 850 850 850 850 850 850 850 851 851 851 852 852 852
795 796 797 797 798 799 800 801 802 803 804 805 806 807 808 809 809 810 810 810 810 811 813 816 818 818 819 821 822 821 822 822 823 824 825 826 827 830 833 834 834 835 836 837 838 839 840 841 841 843 845 845 845 846 847 847 848 848 849 849 849 849 849 849 849 848 849 849 849 850 850 850 851 851
797 798 798 798 799 800 801 802 803 804 805 806 807 808 809 809 810 810 811 811 812 813 813 815 817 818 818 820 821 821 822 823 824 825 825 826 828 829 832 834 834 836 838 838 837 838 840 841 842 844 844 845 845 846 847 847 848 848 849 849 849 849 849 848 848 848 848 848 848 849 849 849 850 850
800 799 799 799 800 802 803 803 804 804 805 807 808 809 809 810 810 811 812 813 814 814 815 816 817 818 819 821 821 822 823 824 825 826 826 827 829 829 831 833 834 836 838 837 837 838 840 842 843 844 844 844 845 846 847 847 848 848 849 849 849 849 849 849 848 848 848 848 848 848 848 849 849 850
802 802 802 802 802 803 804 805 805 805 805 808 810 810 811 812 812 813 814 814 815 815 816 817 818 819 820 821 822 822 823 824 825 826 826 828 829 830 831 833 834 836 836 836 837 839 841 842 843 844 844 845 845 846 847 848 848 849 849 849 849 850 850 849 849 849 848 848 848 848 848 848 849 850
805 805 806 805 805 807 807 807 807 807 807 809 811 812 812 813 814 815 816 816 816 817 817 818 820 821 821 822 822 823 823 824 825 826 827 828 829 830 832 833 834 836 836 837 838 839 841 842 843 843 844 845 846 846 847 848 849 849 850 850 850 850 850 850 850 849 849 849 849 848 848 848 849 850
808 809 809 808 808 809 810 809 809 810 811 812 813 814 814 815 816 817 818 818 818 819 820 820 822 822 823 823 823 824 824 825 826 827 828 828 829 830 831 833 834 836 837 838 838 839 840 841 842 842 842 844 846 847 847 848 849 850 850 850 850 851 851 851 851 850 850 850 849 849 849 849 849 850
810 812 812 811 811 811 811 811 812 813 813 814 815 815 816 817 818 819 820 820 821 821 822 823 824 825 825 825 826 826 826 827 827 828 829 829 830 831 831 832 833 835 837 839 839 839 840 840 841 841 841 842 844 845 847 847 848 849 850 850 850 851 851 851 851 851 851 851 850 850 850 850 850 851
812 814 815 814 814 814 814 814 814 815 815 816 816 817 818 819 821 822 822 823 823 824 825 826 826 827 828 828 828 828 828 829 829 830 830 831 831 831 831 831 832 835 838 839 839 839 840 840 840 840 841 840 841 843 845 846 847 848 849 850 851 851 852 852 852 851 851 851 851 851 851 851 851 851
816 817 817 817 817 817 817 816 816 817 818 818 819 820 820 821 823 824 825 826 826 827 827 828 828 829 830 830 830 830 831 831 832 832 832 832 832 833 833 832 833 836 838 839 839 840 840 840 841 841 842 841 840 840 842 844 846 847 848 850 851 852 852 853 852 852 852 852 852 852 852 852 852 852
819 819 819 819 820 820 820 819 820 821 821 821 821 821 822 824 826 827 828 828 829 829 829 830 831 831 832 832 832 833 833 833 834 834 835 835 835 835 835 835 836 838 839 840 840 841 841 842 842 843 843 842 841 840 840 842 845 847 848 849 850 852 852 853 853 853 853 853 852 852 852 851 851 851
822 822 822 822 823 823 823 823 823 824 823 823 823 824 825 827 829 830 830 830 830 831 831 832 833 833 834 834 834 834 835 836 836 836 837 837 837 837 837 838 838 839 841 841 842 843 843 843 843 844 844 844 843 841 841 842 844 846 848 849 850 852 852 853 853 853 853 853 852 851 851 850 850 850
825 825 825 825 825 826 826 826 826 826 826 826 827 828 829 830 831 832 832 832 832 833 834 835 835 835 836 836 836 837 837 838 838 838 838 838 838 839 839 840 840 841 842 843 843 844 844 844 845 845 845 846 845 844 844 844 845 847 849 850 851 852 853 853 853 853 853 853 853 852 851 851 850 850
828 828 828 828 828 829 829 829 829 829 829 830 831 831 832 832 833 833 834 834 835 836 836 837 837 837 837 838 838 838 839 839 838 839 839 839 839 839 840 841 842 843 844 845 845 846 846 846 847 846 846 847 847 847 847 847 847 849 850 852 853 853 853 854 854 853 853 853 853 852 851 851 850 850
831 831 831 831 832 832 832 832 831 832 833 833 833 834 835 835 835 835 836 836 837 837 838 838 838 838 839 839 840 840 840 839 839 840 839 839 840 840 840 841 842 844 846 847 847 848 848 848 848 848 848 848 849 849 850 850 850 851 852 853 854 854 854 854 854 853 853 853 852 852 851 850 849 849
835 834 834 834 835 835 835 834 834 834 835 836 836 836 837 837 837 837 837 838 838 839 839 839 840 840 840 840 841 841 840 840 841 841 840 840 840 841 840 841 842 844 846 847 848 849 849 849 849 849 849 850 850 851 851 851 852 853 853 853 853 853 853 853 853 852 852 852 851 851 850 849 849 848
837 837 837 837 837 837 837 837 836 837 837 837 838 838 838 838 838 839 839 839 840 840 841 841 841 841 841 842 842 842 842 842 841 841 841 841 841 840 840 841 842 843 844 846 848 849 849 850 850 850 850 851 851 851 851 851 852 852 852 852 852 851 851 851 851 851 851 851 850 849 849 849 848 848
839 839 839 839 839 839 839 839 839 839 839 839 839 839 839 839 840 840 840 841 841 842 842 842 842 842 843 843 842 843 843 842 842 841 841 841 841 840 840 841 842 843 844 846 847 848 848 849 850 850 851 851 851 852 852 852 852 853 853 853 852 851 851 851 851 851 850 849 849 848 848 848 848 848
841 840 840 841 841 841 841 840 840 840 840 841 841 841 841 841 841 841 842 842 843 843 843 843 843 843 843 843 843 843 843 843 842 842 841 841 841 840 840 841 843 844 846 847 847 847 847 848 849 850 850 851 851 852 853 853 853 854 854 854 854 854 853 852 852 852 851 850 850 849 849 849 849 849
842 842 842 842 842 842 842 842 842 842 842 842 842 842 842 843 843 843 843 843 843 844 844 844 844 844 844 843 843 843 843 843 843 843 842 842 841 841 841 843 844 846 847 847 848 848 848 848 848 849 849 850 851 852 854 854 854 855 855 856 856 855 855 854 853 853 852 851 851 850 850 850 850 849
844 844 844 844 844 844 844 844 844 844 844 843 843 843 843 844 844 844 844 844 844 844 844 844 844 844 845 845 844 844 844 844 844 844 844 844 844 843 844 846 847 847 848 848 849 849 848 848 848 849 849 848 848 850 853 855 855 855 856 856 856 856 856 855 854 853 853 852 851 850 850 850 849 848
845 845 845 845 845 845 845 845 845 845 844 844 844 844 844 844 845 845 845 845 845 846 846 846 845 845 846 846 845 845 845 845 845 845 845 845 845 845 846 847 848 848 848 848 849 849 849 849 850 851 851 850 849 850 852 854 855 856 856 856 856 856 856 856 855 854 853 853 852 851 851 850 849 848
847 847 846 846 846 846 846 846 846 846 846 845 845 845 845 845 845 846 846 846 846 846 846 846 846 846 846 846 845 846 846 846 846 846 846 846 846 846 847 847 847 848 849 849 848 848 849 851 853 854 853 853 853 854 854 854 854 855 856 855 855 856 857 856 856 855 854 854 853 852 851 850 849 848
850 850 849 849 848 848 848 848 848 848 847 847 846 846 846 846 846 846 847 847 847 847 847 847 847 847 846 846 846 846 846 846 846 847 847 847 847 847 847 848 849 850 851 851 851 850 851 854 855 855 855 855 855 855 855 854 854 855 855 854 854 855 857 857 856 856 855 854 854 853 851 850 848 847
852 852 852 851 851 850 850 850 850 850 849 849 848 847 847 847 847 847 848 848 848 848 848 848 848 848 847 847 847 847 847 848 849 849 850 850 850 850 850 850 851 851 852 853 853 854 855 856 856 856 856 855 855 854 853 853 854 854 855 854 854 855 856 856 856 856 855 855 854 853 851 850 849 847
854 854 854 854 853 852 852 852 851 851 851 850 850 849 849 849 849 849 849 849 849 849 849 849 849 849 848 848 848 848 848 849 850 851 852 852 852 852 852 852 853 853 853 854 855 856 856 856 856 855 855 855 854 853 853 854 855 855 856 856 855 855 855 855 855 855 854 854 854 853 852 851 850 848
855 855 856 856 855 855 854 853 853 852 852 851 851 851 850 850 850 850 850 850 849 849 849 849 848 848 848 849 849 850 850 851 851 852 852 852 852 853 854 855 855 855 854 855 856 856 856 856 856 855 855 855 855 855 855 856 856 856 856 857 856 855 854 854 854 853 853 852 852 852 852 851 850 849
857 856 856 856 857 856 856 855 855 854 853 853 852 852 851 851 851 850 850 850 850 849 849 849 849 849 849 850 850 851 851 852 852 853 853 853 854 854 855 856 856 856 856 855 856 856 856 856 856 856 856 856 856 857 857 857 857 856 856 857 856 855 854 853 853 852 851 850 850 850 850 850 850 849
859 858 857 857 858 857 857 857 856 855 855 854 853 853 852 852 852 852 852 852 851 851 851 851 851 851 851 851 851 852 853 853 854 853 853 854 855 855 856 856 857 857 857 856 856 856 856 856 856 856 857 857 857 857 858 858 857 856 857 857 856 855 854 853 852 851 849 848 848 849 849 848 848 847